Radiation Dose at Monitoring Post of Fukushima Daini Nuclear Power Station
Date,Time,MP-1(microSv/h),MP-2(microSv/h),MP-3(microSv/h),MP-4(microSv/h),MP-5(microSv/h),MP-6(microSv/h),MP-7(microSv/h),Wind Direction,Wind Velocity(m/s),Rain
2015/01/24,00:00,-,0.373,0.616,0.558,0.554,0.254,0.226,north-northwest,4.2,No
2015/01/24,00:10,-,0.371,0.616,0.558,0.555,0.253,0.226,north,4.7,No
2015/01/24,00:20,-,0.373,0.616,0.558,0.556,0.254,0.226,north,4.1,No
2015/01/24,00:30,-,0.370,0.620,0.558,0.556,0.254,0.226,north,3.9,No
2015/01/24,00:40,-,0.371,0.617,0.560,0.556,0.255,0.227,north-northwest,4.4,No
2015/01/24,00:50,-,0.373,0.616,0.560,0.556,0.254,0.227,north,4.3,No
2015/01/24,01:00,-,0.372,0.617,0.558,0.555,0.254,0.227,north-northwest,5.1,No
2015/01/24,01:10,-,0.371,0.617,0.559,0.557,0.255,0.227,north-northwest,4.8,No
2015/01/24,01:20,-,0.371,0.616,0.558,0.554,0.254,0.226,north,3.1,No
2015/01/24,01:30,-,0.372,0.616,0.560,0.556,0.254,0.227,north-northwest,2.8,No
2015/01/24,01:40,-,0.371,0.616,0.558,0.554,0.256,0.227,north,3.0,No
2015/01/24,01:50,-,0.371,0.618,0.559,0.556,0.254,0.228,north,2.1,No
2015/01/24,02:00,-,0.372,0.616,0.559,0.557,0.254,0.226,north-northwest,1.5,No
2015/01/24,02:10,-,0.371,0.617,0.560,0.557,0.254,0.227,north,1.5,No
2015/01/24,02:20,-,0.372,0.617,0.557,0.554,0.255,0.225,north-northeast,1.9,No
2015/01/24,02:30,-,0.372,0.616,0.558,0.555,0.254,0.228,north,1.4,No
2015/01/24,02:40,-,0.372,0.617,0.560,0.554,0.254,0.227,-,CALM,No
2015/01/24,02:50,-,0.371,0.616,0.559,0.554,0.254,0.227,north,1.7,No
2015/01/24,03:00,-,0.372,0.618,0.559,0.556,0.254,0.226,north,1.8,No
2015/01/24,03:10,-,0.371,0.618,0.559,0.556,0.253,0.226,north,1.6,No
2015/01/24,03:20,-,0.372,0.617,0.559,0.556,0.254,0.227,north,1.4,No
2015/01/24,03:30,-,0.372,0.617,0.558,0.555,0.255,0.227,north-northeast,1.0,No
2015/01/24,03:40,-,0.371,0.617,0.559,0.556,0.255,0.227,-,CALM,No
2015/01/24,03:50,-,0.371,0.615,0.559,0.556,0.254,0.228,-,CALM,No
2015/01/24,04:00,-,0.371,0.617,0.559,0.555,0.255,0.226,-,CALM,No
2015/01/24,04:10,-,0.372,0.617,0.558,0.556,0.255,0.226,-,CALM,No
2015/01/24,04:20,-,0.372,0.616,0.559,0.556,0.254,0.228,northeast,0.8,No
2015/01/24,04:30,-,0.370,0.617,0.559,0.557,0.255,0.226,-,CALM,No
2015/01/24,04:40,-,0.371,0.614,0.559,0.555,0.255,0.227,-,CALM,No
2015/01/24,04:50,-,0.372,0.618,0.559,0.555,0.254,0.227,-,CALM,No
2015/01/24,05:00,-,0.371,0.617,0.559,0.555,0.254,0.226,-,CALM,No
2015/01/24,05:10,-,0.371,0.618,0.560,0.555,0.255,0.226,north,0.6,No
2015/01/24,05:20,-,0.371,0.617,0.559,0.556,0.254,0.226,-,CALM,No
2015/01/24,05:30,-,0.372,0.616,0.560,0.555,0.255,0.226,north-northwest,1.1,No
2015/01/24,05:40,-,0.371,0.616,0.559,0.556,0.253,0.227,north-northwest,1.6,No
2015/01/24,05:50,-,0.371,0.615,0.559,0.555,0.255,0.227,north-northwest,1.1,No
2015/01/24,06:00,-,0.372,0.617,0.557,0.555,0.255,0.227,north,1.1,No
2015/01/24,06:10,-,0.371,0.617,0.560,0.553,0.254,0.226,-,CALM,No
2015/01/24,06:20,-,0.371,0.618,0.558,0.555,0.254,0.225,-,CALM,No
2015/01/24,06:30,-,0.370,0.616,0.558,0.553,0.254,0.226,south,0.8,No
2015/01/24,06:40,-,0.372,0.617,0.560,0.553,0.254,0.227,west-southwest,0.7,No
2015/01/24,06:50,-,0.371,0.616,0.561,0.554,0.253,0.227,southwest,0.7,No
2015/01/24,07:00,-,0.370,0.616,0.559,0.555,0.254,0.227,west-northwest,0.8,No
2015/01/24,07:10,-,0.371,0.616,0.558,0.554,0.255,0.226,north-northwest,1.3,No
2015/01/24,07:20,-,0.371,0.616,0.559,0.555,0.254,0.226,north-northwest,1.5,No
2015/01/24,07:30,-,0.371,0.615,0.559,0.556,0.253,0.226,north-northwest,1.0,No
2015/01/24,07:40,-,0.371,0.616,0.559,0.555,0.254,0.226,north,3.5,No
2015/01/24,07:50,-,0.372,0.617,0.560,0.554,0.254,0.226,north,3.2,No
2015/01/24,08:00,-,0.372,0.618,0.558,0.555,0.254,0.226,north,3.3,No
2015/01/24,08:10,-,0.372,0.619,0.558,0.554,0.254,0.225,north,3.4,No
2015/01/24,08:20,-,0.370,0.617,0.560,0.555,0.253,0.226,north,3.6,No
2015/01/24,08:30,-,0.372,0.618,0.560,0.555,0.253,0.226,north,3.2,No
2015/01/24,08:40,-,0.371,0.618,0.558,0.554,0.253,0.226,north,3.2,No
2015/01/24,08:50,-,0.372,0.617,0.560,0.558,0.254,0.225,north,1.4,No
2015/01/24,09:00,-,0.372,0.617,0.561,0.556,0.254,0.226,north-northeast,1.1,No
2015/01/24,09:10,-,0.371,0.620,0.558,0.555,0.253,0.226,north,2.2,No
2015/01/24,09:20,-,0.372,0.617,0.560,0.555,0.253,0.225,north-northwest,2.2,No
2015/01/24,09:30,-,0.373,0.618,0.560,0.556,0.253,0.226,north-northeast,1.8,No
2015/01/24,09:40,-,0.372,0.617,0.559,0.556,0.253,0.227,north,1.7,No
2015/01/24,09:50,-,0.374,0.619,0.560,0.555,0.254,0.225,north,1.8,No
2015/01/24,10:00,-,0.372,0.618,0.563,0.555,0.254,0.227,north-northeast,1.8,No
2015/01/24,10:10,-,0.371,0.618,0.561,0.556,0.254,0.226,northeast,1.9,No
2015/01/24,10:20,-,0.371,0.617,0.560,0.556,0.255,0.227,-,CALM,No
2015/01/24,10:30,-,0.374,0.617,0.561,0.557,0.253,0.227,west-northwest,2.8,No
2015/01/24,10:40,-,0.373,0.617,0.560,0.555,0.255,0.228,northwest,4.1,No
2015/01/24,10:50,-,0.373,0.618,0.561,0.556,0.254,0.226,north-northwest,3.3,No
2015/01/24,11:00,-,0.372,0.618,0.561,0.556,0.255,0.227,northwest,1.9,No
2015/01/24,11:10,-,0.372,0.618,0.562,0.556,0.254,0.227,west,3.3,No
2015/01/24,11:20,-,0.373,0.619,0.561,0.556,0.255,0.228,-,CALM,No
2015/01/24,11:30,-,0.373,0.618,0.562,0.557,0.254,0.228,west,2.7,No
2015/01/24,11:40,-,0.374,0.616,0.562,0.557,0.254,0.228,west,5.0,No
2015/01/24,11:50,-,0.373,0.617,0.562,0.556,0.256,0.227,west-northwest,5.0,No
2015/01/24,12:00,-,0.373,0.617,0.562,0.558,0.255,0.226,northwest,4.6,No
2015/01/24,12:10,-,0.373,0.618,0.563,0.557,0.255,0.226,west-northwest,2.4,No
2015/01/24,12:20,-,0.373,0.619,0.561,0.556,0.254,0.227,north-northwest,1.4,No
2015/01/24,12:30,-,0.373,0.617,0.563,0.557,0.255,0.226,north,3.6,No
2015/01/24,12:40,-,0.373,0.619,0.564,0.557,0.255,0.227,northwest,5.3,No
2015/01/24,12:50,-,0.373,0.619,0.561,0.558,0.255,0.227,west-northwest,4.7,No
2015/01/24,13:00,-,0.374,0.620,0.563,0.558,0.255,0.228,northwest,6.4,No
2015/01/24,13:10,-,0.374,0.621,0.560,0.557,0.254,0.227,west-northwest,6.4,No
2015/01/24,13:20,-,0.374,0.621,0.562,0.557,0.254,0.227,west-northwest,6.6,No
2015/01/24,13:30,-,0.372,0.620,0.563,0.557,0.255,0.227,west,7.8,No
2015/01/24,13:40,-,0.373,0.619,0.562,0.556,0.255,0.226,west,6.0,No
2015/01/24,13:50,-,0.372,0.619,0.563,0.557,0.254,0.227,west-northwest,6.4,No
2015/01/24,14:00,-,0.375,0.619,0.563,0.557,0.256,0.227,west-northwest,5.2,No
2015/01/24,14:10,-,0.374,0.621,0.562,0.556,0.253,0.228,west,4.5,No
2015/01/24,14:20,-,0.373,0.619,0.563,0.559,0.255,0.227,west-northwest,5.0,No
2015/01/24,14:30,-,0.373,0.620,0.562,0.557,0.254,0.228,west-northwest,5.3,No
2015/01/24,14:40,-,0.374,0.621,0.563,0.557,0.255,0.227,west-northwest,5.3,No
2015/01/24,14:50,-,0.374,0.619,0.561,0.557,0.255,0.227,west-northwest,6.7,No
2015/01/24,15:00,-,0.373,0.620,0.563,0.557,0.255,0.228,northwest,3.2,No
2015/01/24,15:10,-,0.374,0.619,0.561,0.558,0.255,0.229,northwest,1.7,No
2015/01/24,15:20,-,0.374,0.618,0.561,0.556,0.255,0.229,north,3.0,No
2015/01/24,15:30,-,0.374,0.620,0.561,0.555,0.255,0.229,north-northwest,1.7,No
2015/01/24,15:40,-,0.373,0.620,0.563,0.558,0.255,0.228,north-northwest,3.6,No
2015/01/24,15:50,-,0.374,0.618,0.563,0.557,0.255,0.228,north,3.1,No
2015/01/24,16:00,-,0.373,0.621,0.563,0.556,0.255,0.228,northwest,1.9,No
2015/01/24,16:10,-,0.374,0.620,0.562,0.556,0.254,0.227,north-northwest,0.6,No
2015/01/24,16:20,-,0.373,0.620,0.564,0.555,0.256,0.227,north,1.5,No
2015/01/24,16:30,-,0.373,0.618,0.562,0.557,0.256,0.229,northwest,1.0,No
2015/01/24,16:40,-,0.373,0.620,0.562,0.558,0.254,0.228,north-northwest,1.6,No
2015/01/24,16:50,-,0.374,0.620,0.563,0.556,0.255,0.227,north-northwest,1.1,No
2015/01/24,17:00,-,0.373,0.619,0.562,0.556,0.256,0.227,north-northwest,1.1,No
2015/01/24,17:10,-,0.375,0.620,0.562,0.558,0.255,0.227,west-northwest,2.4,No
2015/01/24,17:20,-,0.374,0.620,0.562,0.557,0.255,0.228,west-northwest,3.1,No
2015/01/24,17:30,-,0.373,0.619,0.562,0.558,0.256,0.228,west-northwest,1.9,No
2015/01/24,17:40,-,0.373,0.619,0.562,0.558,0.256,0.229,north-northwest,2.8,No
2015/01/24,17:50,-,0.373,0.622,0.561,0.557,0.256,0.228,west-northwest,3.1,No
2015/01/24,18:00,-,0.373,0.618,0.561,0.557,0.256,0.229,west,3.5,No
2015/01/24,18:10,-,0.372,0.618,0.562,0.558,0.256,0.228,west-southwest,3.4,No
2015/01/24,18:20,-,0.373,0.619,0.562,0.556,0.255,0.228,southwest,5.0,No
2015/01/24,18:30,-,0.373,0.620,0.562,0.556,0.256,0.228,southwest,4.4,No
2015/01/24,18:40,-,0.372,0.620,0.562,0.557,0.257,0.227,southwest,1.9,No
2015/01/24,18:50,-,0.373,0.619,0.563,0.556,0.257,0.229,south-southwest,2.3,No
2015/01/24,19:00,-,0.373,0.618,0.563,0.557,0.255,0.227,south-southwest,3.3,No
2015/01/24,19:10,-,0.374,0.619,0.561,0.558,0.256,0.228,south-southwest,3.0,No
2015/01/24,19:20,-,0.372,0.619,0.562,0.556,0.256,0.227,south-southwest,1.4,No
2015/01/24,19:30,-,0.372,0.618,0.562,0.557,0.256,0.227,south-southwest,1.5,No
2015/01/24,19:40,-,0.373,0.621,0.561,0.558,0.256,0.227,south-southwest,1.3,No
2015/01/24,19:50,-,0.372,0.619,0.562,0.558,0.256,0.227,south-southwest,1.6,No
2015/01/24,20:00,-,0.373,0.619,0.563,0.556,0.256,0.228,south-southwest,1.5,No
2015/01/24,20:10,-,0.373,0.619,0.563,0.556,0.255,0.227,south-southwest,1.9,No
2015/01/24,20:20,-,0.374,0.620,0.561,0.556,0.257,0.228,south-southwest,1.7,No
2015/01/24,20:30,-,0.372,0.618,0.563,0.557,0.255,0.229,south-southwest,0.9,No
2015/01/24,20:40,-,0.371,0.619,0.561,0.556,0.257,0.229,southwest,2.1,No
2015/01/24,20:50,-,0.373,0.621,0.561,0.557,0.256,0.229,southwest,1.4,No
2015/01/24,21:00,-,0.373,0.617,0.562,0.555,0.256,0.229,southwest,0.8,No
2015/01/24,21:10,-,0.373,0.620,0.562,0.557,0.256,0.229,southwest,1.1,No
2015/01/24,21:20,-,0.374,0.619,0.561,0.556,0.257,0.229,southwest,1.4,No
2015/01/24,21:30,-,0.372,0.620,0.561,0.557,0.257,0.229,south-southwest,1.7,No
2015/01/24,21:40,-,0.371,0.620,0.562,0.555,0.255,0.229,south-southwest,1.5,No
2015/01/24,21:50,-,0.373,0.621,0.562,0.557,0.256,0.228,southwest,1.6,No
2015/01/24,22:00,-,0.374,0.620,0.561,0.557,0.256,0.229,south-southwest,1.1,No
2015/01/24,22:10,-,0.372,0.618,0.561,0.556,0.256,0.229,south-southwest,2.4,No
2015/01/24,22:20,-,0.373,0.621,0.562,0.555,0.255,0.230,south-southwest,2.3,No
2015/01/24,22:30,-,0.373,0.619,0.562,0.558,0.257,0.230,south-southwest,2.1,No
2015/01/24,22:40,-,0.374,0.618,0.562,0.559,0.256,0.228,south-southwest,1.7,No
2015/01/24,22:50,-,0.372,0.618,0.562,0.557,0.255,0.230,south,2.2,No
2015/01/24,23:00,-,0.373,0.621,0.562,0.555,0.256,0.229,south-southwest,2.7,No
2015/01/24,23:10,-,0.373,0.619,0.561,0.556,0.255,0.229,south-southwest,2.4,No
2015/01/24,23:20,-,0.373,0.620,0.562,0.556,0.255,0.228,south,2.5,No
2015/01/24,23:30,-,0.372,0.619,0.562,0.557,0.256,0.228,south-southwest,2.5,No
2015/01/24,23:40,-,0.373,0.620,0.562,0.554,0.255,0.228,south-southwest,2.5,No
2015/01/24,23:50,-,0.373,0.620,0.562,0.557,0.255,0.229,south-southwest,2.6,No
